This demonstration page uses our WeatherBlox Daily Observations layout. Learn more.

Left ArrowRight Arrow

Hourly Observations for September 24, 2022

Temp ( °F °C ) Dew Point ( °F °C ) Humidity (%) Winds ( mph kmh ) Pressure ( in mb ) Visibility ( mi km ) Precip ( " mm )
12:15 am 00:15 Clear 55 13 45 7 67 67 N 6 9 30.14 1021 10 16 0.00 0.00
12:35 am 00:35 Clear 55 13 45 7 67 67 N 3 6 30.14 1021 10 16 0.00 0.00
12:55 am 00:55 Clear 55 13 45 7 67 67 N 5 7 30.14 1021 10 16 0.00 0.00
1:15 am 01:15 Clear 55 13 45 7 67 67 N 3 6 30.15 1021 10 16 0.00 0.00
1:35 am 01:35 Clear 55 13 45 7 67 67 NW 5 7 30.15 1021 10 16 0.00 0.00
1:55 am 01:55 Clear 54 12 45 7 71 71 Calm 30.16 1021 10 16 0.00 0.00
2:15 am 02:15 Clear 54 12 45 7 71 71 N 6 9 30.15 1021 10 16 0.00 0.00
2:35 am 02:35 Clear 54 12 45 7 71 71 NNE 5 7 30.15 1021 10 16 0.00 0.00
2:55 am 02:55 Clear 54 12 45 7 71 71 N 3 6 30.15 1021 10 16 0.00 0.00
3:15 am 03:15 Clear 54 12 45 7 71 71 Calm 30.15 1021 10 16 0.00 0.00
3:35 am 03:35 Clear 54 12 45 7 71 71 NNE 3 6 30.15 1021 10 16 0.00 0.00
3:55 am 03:55 Clear 52 11 45 7 76 76 Calm 30.16 1021 10 16 0.00 0.00
4:15 am 04:15 Clear 52 11 46 8 82 82 WNW 5 7 30.16 1021 10 16 0.00 0.00
4:35 am 04:35 Clear 50 10 46 8 87 87 Calm 30.17 1022 10 16 0.00 0.00
4:55 am 04:55 Clear 50 10 45 7 82 82 WNW 6 9 30.18 1022 10 16 0.00 0.00
5:15 am 05:15 Clear 52 11 45 7 76 76 NNW 3 6 30.16 1021 10 16 0.00 0.00
5:35 am 05:35 Clear 50 10 45 7 82 82 Calm 30.16 1021 10 16 0.00 0.00
5:55 am 05:55 Clear 50 10 45 7 82 82 NNW 3 6 30.16 1021 10 16 0.00 0.00
6:15 am 06:15 Clear 50 10 45 7 82 82 N 5 7 30.16 1021 10 16 0.00 0.00
6:35 am 06:35 Clear 50 10 45 7 82 82 Calm 30.16 1021 10 16 0.00 0.00
6:55 am 06:55 Clear 46 8 45 7 93 93 W 5 7 30.17 1022 10 16 0.00 0.00
7:15 am 07:15 Sunny 46 8 45 7 93 93 Calm 30.16 1021 10 16 0.00 0.00
7:35 am 07:35 Sunny 50 10 45 7 82 82 NNW 3 6 30.16 1021 10 16 0.00 0.00
7:55 am 07:55 Sunny 50 10 45 7 82 82 Calm 30.16 1021 10 16 0.00 0.00
8:15 am 08:15 Sunny 52 11 46 8 82 82 W 6 9 30.16 1021 10 16 0.00 0.00
8:35 am 08:35 Sunny 52 11 46 8 82 82 Calm 30.16 1021 10 16 0.00 0.00
8:55 am 08:55 Sunny 54 12 46 8 76 76 SW 3 6 30.17 1022 10 16 0.00 0.00
9:15 am 09:15 Sunny 54 12 46 8 76 76 Calm 30.17 1022 10 16 0.00 0.00
9:35 am 09:35 Sunny 55 13 46 8 72 72 W 3 6 30.17 1022 10 16 0.00 0.00
9:55 am 09:55 Sunny 55 13 46 8 72 72 Calm 30.17 1022 10 16 0.00 0.00
10:15 am 10:15 Sunny 57 14 46 8 67 67 Calm 30.16 1021 10 16 0.00 0.00
10:35 am 10:35 Sunny 61 16 45 7 55 55 Calm 30.16 1021 10 16 0.00 0.00
10:55 am 10:55 Sunny 63 17 46 8 55 55 Calm 30.15 1021 10 16 0.00 0.00
11:15 am 11:15 Sunny 63 17 46 8 55 55 Calm 30.13 1020 10 16 0.00 0.00
11:35 am 11:35 Sunny 63 17 46 8 55 55 W 3 6 30.13 1020 10 16 0.00 0.00
11:55 am 11:55 Sunny 64 18 45 7 49 49 Calm 30.12 1020 10 16 0.00 0.00
12:15 pm 12:15 Sunny 64 18 45 7 49 49 Calm 30.12 1020 10 16 0.00 0.00
12:35 pm 12:35 Sunny 66 19 46 8 49 49 W 3 6 30.10 1019 10 16 0.00 0.00
12:55 pm 12:55 Sunny 66 19 48 9 52 52 W 5 7 30.09 1019 10 16 0.00 0.00
1:15 pm 13:15 Sunny 64 18 45 7 49 49 Calm 30.08 1019 10 16 0.00 0.00
1:35 pm 13:35 Sunny 64 18 46 8 52 52 Calm 30.07 1018 10 16 0.00 0.00
1:55 pm 13:55 Sunny 64 18 46 8 52 52 WSW 6 9 30.07 1018 7 11 0.00 0.00
2:15 pm 14:15 Sunny 64 18 46 8 52 52 SW 5 7 30.07 1018 10 16 0.00 0.00
2:35 pm 14:35 Sunny 66 19 50 10 56 56 Calm 30.05 1018 10 16 0.00 0.00
2:55 pm 14:55 Partly Cloudy 66 19 50 10 56 56 SSW 3 6 30.04 1017 10 16 0.00 0.00
3:15 pm 15:15 Mostly Cloudy 66 19 46 8 49 49 SSW 5 7 30.03 1017 10 16 0.00 0.00
3:35 pm 15:35 Partly Cloudy 66 19 48 9 52 52 SW 6 9 30.02 1017 10 16 0.00 0.00
3:55 pm 15:55 Sunny 66 19 50 10 56 56 SSW 8 13 30.01 1016 10 16 0.00 0.00
4:15 pm 16:15 Sunny 68 20 52 11 56 56 SSW 8 13 30.01 1016 10 16 0.00 0.00
4:35 pm 16:35 Mostly Cloudy 66 19 52 11 60 60 SSW 7 11 30.00 1016 10 16 0.00 0.00
4:55 pm 16:55 Mostly Cloudy 68 20 52 11 56 56 SSW 5 7 30.00 1016 10 16 0.00 0.00
5:15 pm 17:15 Partly Cloudy 66 19 52 11 60 60 SW 8 13 29.99 1016 10 16 0.00 0.00
5:35 pm 17:35 Sunny 68 20 52 11 56 56 S 9 15 29.98 1015 10 16 0.00 0.00
5:55 pm 17:55 Sunny 68 20 52 11 56 56 SW 6 9 29.97 1015 10 16 0.00 0.00
6:15 pm 18:15 Sunny 64 18 52 11 64 64 S 5 7 29.97 1015 10 16 0.00 0.00
6:35 pm 18:35 Partly Cloudy 64 18 52 11 64 64 Calm 29.96 1015 10 16 0.00 0.00
6:55 pm 18:55 Sunny 64 18 52 11 64 64 SSW 3 6 29.96 1015 10 16 0.00 0.00
7:15 pm 19:15 Clear 63 17 52 11 68 68 Calm 29.97 1015 10 16 0.00 0.00
7:35 pm 19:35 Clear 61 16 52 11 72 72 Calm 29.97 1015 10 16 0.00 0.00
7:55 pm 19:55 Clear 61 16 52 11 72 72 Calm 29.97 1015 10 16 0.00 0.00
8:15 pm 20:15 Clear 59 15 54 12 82 82 Calm 29.97 1015 10 16 0.00 0.00
8:35 pm 20:35 Clear 61 16 54 12 77 77 Calm 29.96 1014 10 16 0.00 0.00
8:55 pm 20:55 Clear 55 13 54 12 94 94 Calm 29.97 1015 10 16 0.00 0.00
9:15 pm 21:15 Partly Cloudy 55 13 54 12 94 94 Calm 29.96 1015 10 16 0.00 0.00
9:35 pm 21:35 Mostly Cloudy 55 13 54 12 94 94 SW 3 6 29.96 1015 10 16 0.00 0.00
9:55 pm 21:55 Cloudy 55 13 54 12 94 94 Calm 29.95 1014 10 16 0.00 0.00
10:15 pm 22:15 Mostly Cloudy 57 14 54 12 88 88 Calm 29.95 1014 10 16 0.00 0.00
10:35 pm 22:35 Mostly Cloudy 55 13 54 12 94 94 SSW 3 6 29.95 1014 10 16 0.00 0.00
10:55 pm 22:55 Mostly Cloudy 55 13 54 12 94 94 SSW 3 6 29.94 1014 10 16 0.00 0.00
11:15 pm 23:15 Partly Cloudy 55 13 54 12 94 94 WNW 3 6 29.94 1014 10 16 0.00 0.00
11:35 pm 23:35 Clear 55 13 54 12 94 94 Calm 29.94 1014 10 16 0.00 0.00
11:55 pm 23:55 Mostly Cloudy 55 13 54 12 94 94 Calm 29.93 1014 10 16 0.00 0.00

Powered by AerisWeather